Location: Unspecified
(40.7945°N, 111.1337°W)
Time: 17:30:53
(UTC-06:00)

Okean 3 - Visible Passes

Search period start: 20 May 2018 00:00
Search period end: 30 May 2018 00:00
Orbit: 577 x 602 km, 82.5° (Epoch: 20 May)

Date Brightness Start Highest point End Pass type
(mag) Time Alt. Az. Time Alt. Az. Time Alt. Az.
20 May 3.5 21:26:07 10° S 21:30:20 61° E 21:34:34 10° NNE visible
20 May 6.6 23:06:41 10° W 23:08:00 11° WNW 23:09:19 10° NW visible
21 May 3.5 21:34:07 10° S 21:38:23 87° W 21:42:42 10° N visible
22 May 4.2 21:42:17 10° SSW 21:46:30 57° W 21:50:43 10° N visible
23 May 5.1 21:50:40 10° SW 21:54:38 37° WNW 21:58:37 10° N visible
24 May 5.8 21:59:15 10° SW 22:02:49 25° WNW 22:06:22 10° NNW visible
25 May 6.4 22:08:10 10° WSW 22:11:01 17° WNW 22:13:55 10° NNW visible
26 May 6.7 22:17:40 10° W 22:19:17 12° WNW 22:20:54 10° NW visible
